TimeMDT,TemperatureF,Dew PointF,Humidity,Sea Level PressureIn,VisibilityMPH,Wind Direction,Wind SpeedMPH,Gust SpeedMPH,PrecipitationIn,Events,Conditions,WindDirDegrees,DateUTC
12:19 AM,28.4,12.2,51,30.23,10.0,WSW,17.3,24.2,N/A,,Clear,250,2013-04-22 06:19:00
12:39 AM,28.4,12.2,51,30.22,10.0,WSW,17.3,25.3,N/A,,Clear,250,2013-04-22 06:39:00
12:59 AM,28.4,14.0,55,30.22,10.0,WSW,23.0,31.1,N/A,,Clear,240,2013-04-22 06:59:00
1:19 AM,28.4,14.0,55,30.22,10.0,WSW,18.4,27.6,N/A,,Clear,240,2013-04-22 07:19:00
1:39 AM,28.4,14.0,55,30.21,10.0,WSW,19.6,27.6,N/A,,Scattered Clouds,240,2013-04-22 07:39:00
1:59 AM,26.6,14.0,59,30.20,10.0,WSW,19.6,27.6,N/A,,Scattered Clouds,240,2013-04-22 07:59:00
2:19 AM,26.6,15.8,64,30.20,10.0,SW,18.4,28.8,N/A,,Scattered Clouds,230,2013-04-22 08:19:00
2:39 AM,28.4,17.6,64,30.19,10.0,WSW,21.9,33.4,N/A,,Mostly Cloudy,240,2013-04-22 08:39:00
2:59 AM,28.4,17.6,64,30.19,10.0,WSW,20.7,28.8,N/A,,Overcast,240,2013-04-22 08:59:00
3:19 AM,28.4,17.6,64,30.18,10.0,SW,20.7,32.2,N/A,,Mostly Cloudy,230,2013-04-22 09:19:00
3:39 AM,26.6,15.8,64,30.17,10.0,WSW,21.9,31.1,N/A,,Scattered Clouds,240,2013-04-22 09:39:00
3:59 AM,26.6,14.0,59,30.16,10.0,WSW,17.3,26.5,N/A,,Clear,240,2013-04-22 09:59:00
4:19 AM,26.6,15.8,64,30.16,10.0,SW,20.7,24.2,N/A,,Clear,230,2013-04-22 10:19:00
4:39 AM,26.6,15.8,64,30.15,10.0,SW,24.2,29.9,N/A,,Scattered Clouds,230,2013-04-22 10:39:00
4:59 AM,26.6,17.6,69,30.15,10.0,SW,20.7,36.8,N/A,,Mostly Cloudy,230,2013-04-22 10:59:00
5:19 AM,24.8,14.0,64,30.15,10.0,SW,26.5,33.4,N/A,,Scattered Clouds,220,2013-04-22 11:19:00
5:39 AM,24.8,14.0,64,30.16,10.0,SW,21.9,33.4,N/A,,Mostly Cloudy,230,2013-04-22 11:39:00
5:59 AM,24.8,14.0,64,30.15,10.0,SW,23.0,33.4,N/A,,Overcast,230,2013-04-22 11:59:00
6:19 AM,24.8,12.2,59,30.15,10.0,SW,23.0,28.8,N/A,,Mostly Cloudy,230,2013-04-22 12:19:00
6:39 AM,24.8,12.2,59,30.15,10.0,SW,20.7,25.3,N/A,,Scattered Clouds,230,2013-04-22 12:39:00
6:59 AM,26.6,14.0,59,30.14,10.0,WSW,21.9,33.4,N/A,,Clear,240,2013-04-22 12:59:00
7:19 AM,26.6,14.0,59,30.14,10.0,WSW,25.3,33.4,N/A,,Clear,240,2013-04-22 13:19:00
7:39 AM,28.4,14.0,55,30.15,10.0,SW,20.7,29.9,N/A,,Scattered Clouds,230,2013-04-22 13:39:00
7:59 AM,28.4,14.0,55,30.15,10.0,WSW,18.4,24.2,N/A,,Clear,240,2013-04-22 13:59:00
8:19 AM,28.4,14.0,55,30.16,10.0,SW,18.4,24.2,N/A,,Clear,230,2013-04-22 14:19:00
8:39 AM,28.4,14.0,55,30.16,10.0,SW,17.3,28.8,N/A,,Clear,230,2013-04-22 14:39:00
8:59 AM,28.4,14.0,55,30.16,10.0,SW,16.1,25.3,N/A,,Clear,220,2013-04-22 14:59:00
9:19 AM,30.2,14.0,51,30.16,10.0,SW,11.5,25.3,N/A,,Clear,230,2013-04-22 15:19:00
9:39 AM,30.2,14.0,51,30.16,10.0,SW,20.7,27.6,N/A,,Clear,220,2013-04-22 15:39:00
9:59 AM,32.0,14.0,48,30.16,10.0,SW,20.7,29.9,N/A,,Clear,230,2013-04-22 15:59:00
10:19 AM,32.0,14.0,48,30.16,10.0,SW,20.7,28.8,N/A,,Clear,230,2013-04-22 16:19:00
10:39 AM,32.0,15.8,51,30.17,10.0,SW,18.4,32.2,N/A,,Clear,230,2013-04-22 16:39:00
10:59 AM,32.0,17.6,55,30.17,10.0,WSW,20.7,31.1,N/A,,Scattered Clouds,240,2013-04-22 16:59:00
11:19 AM,32.0,15.8,51,30.17,10.0,SW,20.7,34.5,N/A,,Scattered Clouds,230,2013-04-22 17:19:00
11:39 AM,32.0,17.6,55,30.17,10.0,SSW,17.3,33.4,N/A,,Mostly Cloudy,210,2013-04-22 17:39:00
11:59 AM,32.0,17.6,55,30.16,10.0,SW,25.3,39.1,N/A,,Overcast,220,2013-04-22 17:59:00
12:19 PM,32.0,17.6,55,30.16,10.0,SW,25.3,39.1,N/A,,Overcast,230,2013-04-22 18:19:00
12:39 PM,33.8,17.6,52,30.15,10.0,SW,31.1,44.9,N/A,,Overcast,230,2013-04-22 18:39:00
12:59 PM,33.8,17.6,52,30.14,10.0,SW,25.3,47.2,N/A,,Overcast,220,2013-04-22 18:59:00
1:19 PM,33.8,17.6,52,30.12,10.0,SW,31.1,48.3,N/A,,Overcast,230,2013-04-22 19:19:00
1:39 PM,35.6,17.6,48,30.12,10.0,SW,28.8,52.9,N/A,,Overcast,220,2013-04-22 19:39:00
1:59 PM,37.4,17.6,45,30.11,10.0,SW,36.8,49.5,N/A,,Overcast,220,2013-04-22 19:59:00
2:19 PM,37.4,17.6,45,30.11,10.0,SW,25.3,50.6,N/A,,Mostly Cloudy,220,2013-04-22 20:19:00
2:39 PM,35.6,15.8,44,30.12,10.0,SW,20.7,39.1,N/A,,Overcast,220,2013-04-22 20:39:00
2:59 PM,37.4,14.0,38,30.11,10.0,SW,21.9,44.9,N/A,,Mostly Cloudy,220,2013-04-22 20:59:00
3:19 PM,37.4,14.0,38,30.10,10.0,SW,28.8,46.0,N/A,,Scattered Clouds,220,2013-04-22 21:19:00
3:39 PM,37.4,14.0,38,30.10,10.0,SSW,24.2,46.0,N/A,,Mostly Cloudy,210,2013-04-22 21:39:00
3:59 PM,37.4,14.0,38,30.10,10.0,SSW,29.9,44.9,N/A,,Mostly Cloudy,210,2013-04-22 21:59:00
4:19 PM,37.4,14.0,38,30.09,10.0,WSW,33.4,46.0,N/A,,Mostly Cloudy,240,2013-04-22 22:19:00
4:39 PM,37.4,14.0,38,30.08,10.0,SW,31.1,40.3,N/A,,Mostly Cloudy,230,2013-04-22 22:39:00
4:59 PM,37.4,14.0,38,30.09,10.0,WSW,27.6,44.9,N/A,,Mostly Cloudy,240,2013-04-22 22:59:00
5:19 PM,39.2,12.2,33,30.08,10.0,SW,27.6,44.9,N/A,,Scattered Clouds,230,2013-04-22 23:19:00
5:39 PM,37.4,12.2,36,30.07,10.0,WSW,40.3,62.1,N/A,,Scattered Clouds,240,2013-04-22 23:39:00
5:59 PM,37.4,14.0,38,30.08,10.0,SSW,19.6,39.1,N/A,,Scattered Clouds,210,2013-04-22 23:59:00
6:19 PM,37.4,12.2,36,30.06,10.0,SW,41.4,55.2,N/A,,Mostly Cloudy,230,2013-04-23 00:19:00
6:39 PM,37.4,12.2,36,30.07,10.0,SW,24.2,50.6,N/A,,Scattered Clouds,220,2013-04-23 00:39:00
6:59 PM,35.6,10.4,35,30.06,10.0,SW,41.4,51.8,N/A,,Clear,220,2013-04-23 00:59:00
7:19 PM,35.6,10.4,35,30.06,10.0,WSW,24.2,47.2,N/A,,Scattered Clouds,240,2013-04-23 01:19:00
7:39 PM,33.8,10.4,38,30.06,10.0,SW,34.5,54.1,N/A,,Clear,230,2013-04-23 01:39:00
7:59 PM,33.8,10.4,38,30.05,10.0,SW,41.4,52.9,N/A,,Clear,230,2013-04-23 01:59:00
8:19 PM,33.8,10.4,38,30.05,10.0,SW,32.2,47.2,N/A,,Clear,230,2013-04-23 02:19:00
8:39 PM,33.8,10.4,38,30.05,10.0,SW,36.8,58.7,N/A,,Clear,230,2013-04-23 02:39:00
8:59 PM,33.8,12.2,41,30.06,10.0,WSW,26.5,47.2,N/A,,Mostly Cloudy,240,2013-04-23 02:59:00
9:19 PM,33.8,12.2,41,30.06,10.0,SW,34.5,42.6,N/A,,Overcast,230,2013-04-23 03:19:00
9:39 PM,33.8,12.2,41,30.06,10.0,SW,25.3,39.1,N/A,,Mostly Cloudy,230,2013-04-23 03:39:00
9:59 PM,32.0,12.2,44,30.06,10.0,SW,28.8,39.1,N/A,,Scattered Clouds,230,2013-04-23 03:59:00
10:19 PM,32.0,12.2,44,30.06,10.0,SW,21.9,34.5,N/A,,Mostly Cloudy,230,2013-04-23 04:19:00
10:39 PM,32.0,12.2,44,30.06,10.0,SW,25.3,34.5,N/A,,Mostly Cloudy,220,2013-04-23 04:39:00
10:59 PM,32.0,12.2,44,30.06,10.0,SW,20.7,33.4,N/A,,Overcast,230,2013-04-23 04:59:00
11:19 PM,32.0,12.2,44,30.05,10.0,SW,26.5,34.5,N/A,,Mostly Cloudy,230,2013-04-23 05:19:00
11:39 PM,32.0,12.2,44,30.04,10.0,SW,21.9,35.7,N/A,,Scattered Clouds,220,2013-04-23 05:39:00
11:59 PM,32.0,12.2,44,30.03,10.0,SW,24.2,32.2,N/A,,Scattered Clouds,220,2013-04-23 05:59:00